Location: Dodgeville
(42.9600°N, 90.1300°W)
Time: 14:04:39
(UTC-05:00)

Amateur Radio Satellites - All Passes

Search period start: 25 June 2017 13:34
Search period end: 26 June 2017 13:34
Location: Dodgeville, 42.9600°N, 90.1300°W

Satellite Date Start Highest point End Downlink Frequencies (MHz)
Time Altitude Azimuth
Gurwin Techsat 1B 25 Jun 13:35:25 13:40:34 53° 70° (ENE) 13:45:44 435.225
PCSat 25 Jun 13:49:59 13:54:50 32° 311° (NW) 13:59:43 145.827
Tancredo 1 25 Jun 13:53:29 13:56:22 36° 25° (NNE) 13:59:14 437.200
ESTCUBE 1 25 Jun 13:53:31 13:56:30 18° 296° (WNW) 13:59:28 437.505/2401.250
VELOX 1 25 Jun 13:54:40 13:59:02 62° 287° (WNW) 14:03:25 145.980
ISS 25 Jun 14:10:08 14:13:09 32° 22° (NNE) 14:16:10 437.550
DX 1 25 Jun 14:14:44 14:19:06 73° 102° (ESE) 14:23:28 434.975-435.025
SPROUT 25 Jun 14:17:29 14:21:17 31° 291° (WNW) 14:25:04 437.525
50 SAT 25 Jun 14:23:16 14:26:32 45° 287° (WNW) 14:29:48 437.505
Oscar 19 25 Jun 14:23:23 14:28:07 36° 263° (W) 14:32:52 437.125/150
UKube-1 25 Jun 14:32:12 14:36:33 76° 103° (ESE) 14:40:52 .
SO-50 25 Jun 14:42:02 14:46:32 61° 120° (ESE) 14:51:00 436.795
ITAMSAT 1 25 Jun 15:00:09 15:05:03 43° 69° (ENE) 15:09:58 435.822/435.867
Gurwin Techsat 1B 25 Jun 15:16:54 15:20:48 21° 268° (W) 15:24:44 435.225
AO-7 25 Jun 15:18:43 15:27:00 77° 68° (ENE) 15:35:23 .
MOZHAYETS 4 25 Jun 15:28:29 15:31:44 19° 92° (E) 15:34:59
Tancredo 1 25 Jun 15:29:12 15:31:53 28° 222° (SW) 15:34:33 437.200
ITUPSAT 1 25 Jun 15:45:53 15:50:27 42° 99° (E) 15:54:58 437.325
ISS 25 Jun 15:46:34 15:49:44 43° 219° (SW) 15:52:52 437.550
DX 1 25 Jun 15:52:54 15:54:42 12° 299° (WNW) 15:56:29 434.975-435.025
BEESAT 25 Jun 15:55:51 16:00:33 54° 101° (E) 16:05:13 436.000
UKube-1 25 Jun 16:10:26 16:11:57 12° 300° (WNW) 16:13:28 .
DOVE 4 25 Jun 16:23:44 16:24:19 10° 59° (ENE) 16:24:55 437.250
SO-50 25 Jun 16:23:57 16:27:22 20° 319° (NW) 16:30:47 436.795
ITAMSAT 1 25 Jun 16:40:28 16:44:39 25° 266° (W) 16:48:54 435.822/435.867
KKS-1 25 Jun 17:02:24 17:05:55 22° 94° (E) 17:09:24 437.445
MOZHAYETS 4 25 Jun 17:04:44 17:09:06 44° 289° (WNW) 17:13:26
AO-7 25 Jun 17:14:10 17:20:32 24° 267° (W) 17:26:58 .
ITUPSAT 1 25 Jun 17:24:16 17:28:00 23° 296° (WNW) 17:31:42 437.325
HO-68 25 Jun 17:29:52 17:33:47 16° 50° (NE) 17:37:40 435.675
NUDT-PHONESAT 25 Jun 17:30:27 17:32:56 17° 66° (ENE) 17:35:25 437.300
STARS 25 Jun 17:32:25 17:35:39 20° 93° (E) 17:38:53 437.465
BEESAT 25 Jun 17:34:40 17:37:54 18° 298° (WNW) 17:41:08 436.000
CUTE-I 25 Jun 17:42:45 17:47:34 36° 67° (ENE) 17:52:25 437.470
XW-2F 25 Jun 17:44:54 17:48:17 31° 71° (ENE) 17:51:41 145.980 - 146.000
CUBESAT XI-V 25 Jun 17:45:20 17:49:57 87° 282° (WNW) 17:54:33 437.345
XW-2D 25 Jun 17:48:42 17:52:15 37° 72° (ENE) 17:55:48 145.860 - 145.880
LilacSat-2 25 Jun 17:56:46 18:00:29 47° 73° (ENE) 18:04:14 437.200
DOVE 4 25 Jun 17:57:10 18:01:19 79° 259° (W) 18:05:38 437.250
XW-2B 25 Jun 17:57:33 18:01:14 45° 73° (ENE) 18:04:54 145.730 - 145.750
XW-2C 25 Jun 18:12:51 18:16:41 72° 76° (ENE) 18:20:32 145.795 - 145.815
KAITUO 1B 25 Jun 18:27:02 18:30:48 82° 77° (ENE) 18:34:36 145.475/437.950
SEEDS 25 Jun 18:32:10 18:33:59 13° 62° (ENE) 18:35:47 437.485
KKS-1 25 Jun 18:38:26 18:42:33 37° 291° (WNW) 18:46:40 437.445
CUTE 1.7 + AOD 2 25 Jun 18:47:35 18:51:12 28° 69° (ENE) 18:54:49 437.475
CUBEBUG 2 25 Jun 18:59:23 19:02:55 22° 65° (ENE) 19:06:31 437.445
NUDT-PHONESAT 25 Jun 19:03:05 19:06:33 35° 262° (W) 19:10:03 437.300
STARS 25 Jun 19:07:58 19:12:09 41° 290° (WNW) 19:16:18 437.465
PCSat 25 Jun 19:12:53 19:13:13 10° 30° (NNE) 19:13:32 145.827
HO-68 25 Jun 19:13:07 19:20:16 72° 70° (ENE) 19:27:28 435.675
XW-2F 25 Jun 19:19:41 19:22:28 19° 267° (W) 19:25:16 145.980 - 146.000
AAUSAT CUBESAT 2 25 Jun 19:21:36 19:24:35 20° 66° (ENE) 19:27:35 437.432
CUTE-I 25 Jun 19:22:58 19:27:37 31° 264° (W) 19:32:20 437.470
XW-2D 25 Jun 19:24:07 19:26:34 16° 268° (W) 19:29:01 145.860 - 145.880
CUBESAT XI-V 25 Jun 19:25:56 19:26:34 10° 301° (WNW) 19:27:12 437.345
ZACube-1 25 Jun 19:28:41 19:31:24 16° 63° (ENE) 19:34:08 437.345
UWE-3 25 Jun 19:32:28 19:36:24 28° 68° (ENE) 19:40:23 435.000/436.395/437.385
LilacSat-2 25 Jun 19:33:15 19:35:01 13° 269° (W) 19:36:49 437.200
XW-2B 25 Jun 19:33:45 19:35:39 13° 269° (W) 19:37:33 145.730 - 145.750
XW-2A 25 Jun 19:51:32 19:54:57 69° 259° (W) 19:58:24 145.665 - 145.685
STRAND 1 25 Jun 19:58:10 20:02:58 37° 98° (E) 20:07:43 437.568
SEEDS 25 Jun 20:04:58 20:09:08 64° 259° (W) 20:13:18 437.485
RS-15 25 Jun 20:06:08 20:16:20 34° 104° (ESE) 20:26:41 29.354- 29.394
BEESAT 3 25 Jun 20:15:42 20:17:39 13° 109° (ESE) 20:19:37 437.485
AO-85 25 Jun 20:18:21 20:21:44 25° 115° (ESE) 20:25:02 145.980
CUTE 1.7 + AOD 2 25 Jun 20:23:24 20:26:59 26° 265° (W) 20:30:34 437.475
AO-73 25 Jun 20:27:36 20:32:01 53° 73° (ENE) 20:36:30 145.935
YUBILEINY 25 Jun 20:31:14 20:35:24 14° 74° (ENE) 20:39:34 435.215
CUBEBUG 2 25 Jun 20:34:53 20:39:13 41° 263° (W) 20:43:42 437.445
DELFI C3 25 Jun 20:47:32 20:50:03 17° 66° (ENE) 20:52:34 145.870
PCSat 25 Jun 20:52:59 20:58:09 42° 52° (NE) 21:03:16 145.827
Oscar 11 25 Jun 20:54:47 20:59:07 80° 75° (ENE) 21:03:29 .
AAUSAT CUBESAT 2 25 Jun 20:56:00 20:59:48 36° 263° (W) 21:03:38 437.432
ZACube-1 25 Jun 21:02:40 21:07:10 60° 260° (W) 21:11:44 437.345
HO-68 25 Jun 21:03:14 21:08:36 22° 268° (W) 21:14:00 435.675
UWE-3 25 Jun 21:08:41 21:12:45 31° 265° (W) 21:16:53 435.000/436.395/437.385
BEESAT 2 25 Jun 21:13:52 21:16:46 20° 112° (ESE) 21:19:44 435.950
O/OREOS (USA 219) 25 Jun 21:18:23 21:22:17 29° 104° (ESE) 21:26:11 437.305
SO-50 25 Jun 21:33:27 21:35:35 13° 34° (NE) 21:37:44 436.795
STRAND 1 25 Jun 21:37:37 21:41:59 28° 295° (WNW) 21:46:19 437.568
EO-88 25 Jun 21:42:34 21:46:05 45° 73° (ENE) 21:49:37 145.990 - 145.960
NO-84 25 Jun 21:45:42 21:49:19 39° 131° (SE) 21:53:14 435.350 FM
BEESAT 3 25 Jun 21:50:48 21:54:43 58° 306° (NW) 21:58:43 437.485
UNISAT 6 25 Jun 21:56:15 21:59:05 16° 90° (E) 22:01:53 437.425
AO-85 25 Jun 21:58:25 22:02:01 31° 312° (NW) 22:05:33 145.980
AO-73 25 Jun 22:05:46 22:08:33 16° 269° (W) 22:11:23 145.935
LO-87 25 Jun 22:06:58 22:08:18 12° 64° (ENE) 22:09:38 145.935 - 145.965
FO-29 25 Jun 22:13:56 22:21:25 45° 97° (E) 22:28:45 435.910
RS-15 25 Jun 22:15:32 22:27:45 77° 306° (NW) 22:40:13 29.354- 29.394
M-CUBED/EXP-1 PRIME 25 Jun 22:18:39 22:22:02 32° 104° (ESE) 22:25:39 437.505
DELFI C3 25 Jun 22:20:51 22:24:31 39° 262° (W) 22:28:13 145.870
YUBILEINY 25 Jun 22:21:48 22:30:33 75° 94° (E) 22:39:22 435.215
PCSat 25 Jun 22:36:41 22:41:22 30° 251° (WSW) 22:46:02 145.827
PRISM 25 Jun 22:37:33 22:41:24 38° 99° (E) 22:45:15 437.425
TIGRISAT 25 Jun 22:49:19 22:53:53 51° 99° (E) 22:58:19 435.000
BEESAT 2 25 Jun 22:50:29 22:54:15 40° 310° (NW) 22:58:06 435.950
O/OREOS (USA 219) 25 Jun 22:57:37 23:01:37 30° 301° (WNW) 23:05:37 437.305
SO-50 25 Jun 23:12:21 23:16:53 69° 54° (NE) 23:21:25 436.795
ESTCUBE 1 25 Jun 23:15:46 23:20:06 50° 72° (ENE) 23:24:28 437.505/2401.250
EO-88 25 Jun 23:18:29 23:20:00 12° 269° (W) 23:21:31 145.990 - 145.960
VELOX 1 25 Jun 23:18:30 23:20:46 14° 62° (ENE) 23:23:01 145.980
NO-84 25 Jun 23:23:10 23:26:56 37° 331° (NNW) 23:30:57 435.350 FM
UNISAT 6 25 Jun 23:31:34 23:36:08 54° 288° (WNW) 23:40:35 437.425
SPROUT 25 Jun 23:36:11 23:39:25 21° 66° (ENE) 23:42:42 437.525
LO-87 25 Jun 23:37:52 23:41:19 48° 261° (W) 23:44:47 145.935 - 145.965
NANOSAT C BR1 25 Jun 23:41:16 23:41:42 10° 89° (E) 23:42:07 145.865
M-CUBED/EXP-1 PRIME 25 Jun 23:53:32 23:56:20 21° 297° (WNW) 23:59:17 437.505
FO-29 25 Jun 23:59:03 00:06:17 43° 295° (WNW) 00:13:30 435.910
PRISM 26 Jun 00:13:32 00:16:24 19° 295° (WNW) 00:19:17 437.425
POLYITAN 1 26 Jun 00:16:25 00:20:10 29° 96° (E) 00:23:52 437.675
YUBILEINY 26 Jun 00:21:15 00:28:15 26° 296° (WNW) 00:35:20 435.215
TIGRISAT 26 Jun 00:26:58 00:30:09 18° 297° (WNW) 00:33:15 435.000
QB50P2 26 Jun 00:27:02 00:31:06 41° 98° (E) 00:35:08 145.880/145.840
RS-15 26 Jun 00:31:57 00:42:41 33° 335° (NNW) 00:53:26 29.354- 29.394
AIST 2D 26 Jun 00:34:23 00:37:53 69° 284° (WNW) 00:41:20 435.315
BUGSAT 1 26 Jun 00:40:00 00:41:54 13° 90° (E) 00:43:47 437.445
EO-79 26 Jun 00:51:17 00:55:35 71° 102° (ESE) 00:59:49 145.935-145.965
VELOX 1 26 Jun 00:52:21 00:56:41 63° 258° (WSW) 01:01:03 145.980
ESTCUBE 1 26 Jun 00:54:20 00:57:11 16° 269° (W) 01:00:01 437.505/2401.250
SO-50 26 Jun 00:54:26 00:56:47 14° 251° (WSW) 00:59:08 436.795
50 SAT 26 Jun 00:55:23 00:58:44 66° 75° (ENE) 01:02:06 437.505
NO-84 26 Jun 01:02:39 01:05:32 17° 352° (N) 01:08:29 435.350 FM
DUCHIFAT 1 26 Jun 01:04:52 01:09:09 81° 103° (ESE) 01:13:23 145.980
DX 1 26 Jun 01:10:44 01:15:01 69° 74° (ENE) 01:19:21 434.975-435.025
SPROUT 26 Jun 01:11:11 01:15:06 36° 263° (W) 01:19:04 437.525
NANOSAT C BR1 26 Jun 01:13:37 01:17:53 72° 285° (WNW) 01:22:06 145.865
UKube-1 26 Jun 01:27:06 01:31:22 71° 74° (ENE) 01:35:40 .
Gurwin Techsat 1B 26 Jun 01:51:34 01:55:19 19° 92° (E) 01:59:03 435.225
POLYITAN 1 26 Jun 01:52:16 01:55:51 26° 293° (WNW) 01:59:23 437.675
QB50P2 26 Jun 02:03:34 02:06:35 19° 295° (WNW) 02:09:37 145.880/145.840
BUGSAT 1 26 Jun 02:13:26 02:17:38 58° 286° (WNW) 02:21:47 437.445
EO-79 26 Jun 02:29:05 02:30:45 12° 299° (WNW) 02:32:25 145.935-145.965
MOZHAYETS 4 26 Jun 02:31:09 02:34:38 21° 65° (ENE) 02:38:08
Oscar 19 26 Jun 02:33:22 02:38:30 73° 103° (ESE) 02:43:36 437.125/150
NO-84 26 Jun 02:41:16 02:44:27 19° 13° (NNE) 02:47:38 435.350 FM
DUCHIFAT 1 26 Jun 02:43:14 02:44:09 11° 300° (WNW) 02:45:04 145.980
RS-15 26 Jun 02:50:25 03:00:23 27° 10° (N) 03:10:06 29.354- 29.394
DX 1 26 Jun 02:50:29 02:51:40 11° 270° (W) 02:52:51 434.975-435.025
ITUPSAT 1 26 Jun 02:53:09 02:57:50 55° 72° (ENE) 03:02:33 437.325
BEESAT 26 Jun 03:02:46 03:07:30 70° 75° (ENE) 03:12:18 436.000
UKube-1 26 Jun 03:06:53 03:07:51 11° 271° (W) 03:08:49 .
ITAMSAT 1 26 Jun 03:13:37 03:16:14 14° 90° (E) 03:18:50 435.822/435.867
CUBESAT XI-V 26 Jun 03:15:17 03:17:01 12° 60° (ENE) 03:18:44 437.345
AO-7 26 Jun 03:20:27 03:26:45 23° 92° (E) 03:32:59 .
Gurwin Techsat 1B 26 Jun 03:30:24 03:35:37 57° 289° (WNW) 03:40:49 435.225
KKS-1 26 Jun 04:01:20 04:04:50 23° 66° (ENE) 04:08:22 437.445
MOZHAYETS 4 26 Jun 04:07:06 04:11:30 42° 262° (W) 04:15:56
Oscar 19 26 Jun 04:14:13 04:17:13 16° 300° (WNW) 04:20:11 437.125/150
NO-84 26 Jun 04:18:37 04:22:54 49° 33° (NNE) 04:27:05 435.350 FM
STARS 26 Jun 04:29:57 04:33:10 20° 64° (ENE) 04:36:24 437.465
BEESAT 3 26 Jun 04:30:17 04:32:36 15° 39° (NE) 04:34:53 437.485
ITUPSAT 1 26 Jun 04:32:54 04:35:59 17° 268° (W) 04:39:06 437.325
BEESAT 26 Jun 04:43:32 04:45:46 13° 270° (W) 04:48:01 436.000
AO-85 26 Jun 04:47:33 04:51:13 31° 48° (NE) 04:55:04 145.980
CUBESAT XI-V 26 Jun 04:49:05 04:53:43 82° 259° (W) 04:58:22 437.345
ITAMSAT 1 26 Jun 04:51:00 04:56:16 76° 286° (WNW) 05:01:28 435.822/435.867
RS-15 26 Jun 05:04:50 05:16:45 52° 42° (NE) 05:28:03 29.354- 29.394
AO-7 26 Jun 05:11:55 05:20:20 80° 290° (WNW) 05:28:40 .
BEESAT 2 26 Jun 05:29:57 05:33:00 20° 43° (NE) 05:36:00 435.950
KKS-1 26 Jun 05:37:09 05:41:11 35° 262° (W) 05:45:18 437.445
DOVE 4 26 Jun 05:54:22 05:58:36 28° 95° (E) 06:02:59 437.250
NO-84 26 Jun 05:56:32 06:00:21 30° 231° (SW) 06:04:03 435.350 FM
CUTE-I 26 Jun 06:00:28 06:02:48 13° 88° (E) 06:05:08 437.470
STARS 26 Jun 06:05:06 06:09:14 40° 261° (W) 06:13:24 437.465
BEESAT 3 26 Jun 06:06:40 06:10:41 78° 240° (WSW) 06:14:38 437.485
AO-85 26 Jun 06:27:57 06:31:33 28° 244° (WSW) 06:35:20 145.980
NUDT-PHONESAT 26 Jun 06:32:57 06:35:38 19° 93° (E) 06:38:17 437.300
ITAMSAT 1 26 Jun 06:33:19 06:34:49 11° 304° (NW) 06:36:19 435.822/435.867
HO-68 26 Jun 06:43:34 06:45:34 11° 85° (E) 06:47:34 435.675
XW-2F 26 Jun 06:49:45 06:53:17 38° 98° (E) 06:56:46 145.980 - 146.000
XW-2D 26 Jun 06:54:06 06:57:46 47° 99° (E) 07:01:22 145.860 - 145.880
XW-2B 26 Jun 07:03:04 07:06:48 59° 101° (E) 07:10:30 145.730 - 145.750
LilacSat-2 26 Jun 07:03:04 07:06:51 64° 101° (E) 07:10:34 437.200
AO-7 26 Jun 07:06:12 07:11:50 21° 312° (NW) 07:17:29 .
BEESAT 2 26 Jun 07:07:04 07:11:01 50° 241° (WSW) 07:14:55 435.950
STRAND 1 26 Jun 07:14:42 07:19:43 59° 72° (ENE) 07:24:48 437.568
RS-15 26 Jun 07:17:49 07:29:28 57° 248° (WSW) 07:40:33 29.354- 29.394
XW-2C 26 Jun 07:18:34 07:22:21 85° 281° (W) 07:26:06 145.795 - 145.815
O/OREOS (USA 219) 26 Jun 07:26:48 07:31:15 65° 65° (ENE) 07:35:41 437.305
KAITUO 1B 26 Jun 07:31:09 07:34:53 77° 283° (WNW) 07:38:33 145.475/437.950
DOVE 4 26 Jun 07:31:49 07:36:17 36° 290° (WNW) 07:40:56 437.250
CUTE-I 26 Jun 07:38:05 07:43:29 84° 286° (WNW) 07:48:52 437.470
SEEDS 26 Jun 07:48:30 07:51:30 19° 93° (E) 07:54:29 437.485
Tancredo 1 26 Jun 07:59:52 08:02:40 35° 139° (SE) 08:05:29 437.200
NUDT-PHONESAT 26 Jun 08:06:21 08:09:34 29° 290° (WNW) 08:12:45 437.300
CUTE 1.7 + AOD 2 26 Jun 08:06:27 08:10:32 47° 99° (E) 08:14:35 437.475
CUBEBUG 2 26 Jun 08:24:38 08:29:05 40° 97° (E) 08:33:25 437.445
XW-2F 26 Jun 08:24:49 08:27:06 16° 295° (WNW) 08:29:22 145.980 - 146.000
ISS 26 Jun 08:26:55 08:29:54 33° 138° (SE) 08:32:54 437.550
HO-68 26 Jun 08:27:21 08:34:32 70° 104° (ESE) 08:41:40 435.675
FO-29 26 Jun 08:28:42 08:33:14 21° 56° (NE) 08:38:08 435.910
XW-2D 26 Jun 08:29:43 08:31:32 13° 296° (WNW) 08:33:20 145.860 - 145.880
YUBILEINY 26 Jun 08:31:11 08:39:20 39° 71° (ENE) 08:47:22 435.215
AAUSAT CUBESAT 2 26 Jun 08:36:55 08:40:33 30° 96° (E) 08:44:11 437.432
XW-2B 26 Jun 08:39:26 08:40:29 11° 297° (WNW) 08:41:30 145.730 - 145.750
LilacSat-2 26 Jun 08:39:57 08:40:34 10° 298° (WNW) 08:41:11 437.200
Oscar 11 26 Jun 08:42:38 08:44:50 14° 90° (E) 08:47:02 .
XW-2A 26 Jun 08:45:01 08:48:26 74° 284° (WNW) 08:51:47 145.665 - 145.685
ZACube-1 26 Jun 08:50:39 08:54:20 25° 94° (E) 08:57:56 437.345
STRAND 1 26 Jun 08:55:53 08:59:16 18° 269° (W) 09:02:42 437.568
UNISAT 6 26 Jun 08:55:56 08:58:53 17° 62° (ENE) 09:01:50 437.425
UWE-3 26 Jun 08:56:49 09:01:19 52° 99° (E) 09:05:41 435.000/436.395/437.385
M-CUBED/EXP-1 PRIME 26 Jun 09:05:53 09:09:01 42° 68° (ENE) 09:12:07 437.505
O/OREOS (USA 219) 26 Jun 09:08:12 09:10:03 12° 262° (W) 09:11:54 437.305
CUTE-I 26 Jun 09:20:25 09:22:41 13° 303° (WNW) 09:24:58 437.470
SEEDS 26 Jun 09:23:29 09:27:18 36° 289° (WNW) 09:31:07 437.485
PRISM 26 Jun 09:27:37 09:31:10 31° 69° (ENE) 09:34:46 437.425
Tancredo 1 26 Jun 09:35:29 09:38:15 32° 337° (NNW) 09:41:03 437.200
RS-15 26 Jun 09:37:16 09:38:52 10° 269° (W) 09:40:27 29.354- 29.394
CUTE 1.7 + AOD 2 26 Jun 09:43:22 09:45:59 16° 296° (WNW) 09:48:35 437.475
TIGRISAT 26 Jun 09:48:16 09:52:42 49° 72° (ENE) 09:57:14 435.000
AO-73 26 Jun 09:50:44 09:55:13 82° 283° (WNW) 09:59:31 145.935
DELFI C3 26 Jun 09:57:02 10:00:09 22° 94° (E) 10:03:17 145.870
CUBEBUG 2 26 Jun 10:01:45 10:05:25 23° 295° (WNW) 10:09:01 437.445
ISS 26 Jun 10:03:17 10:06:22 37° 336° (NNW) 10:09:28 437.550
FO-29 26 Jun 10:11:16 10:17:22 77° 258° (WSW) 10:24:20 435.910
AAUSAT CUBESAT 2 26 Jun 10:12:36 10:15:52 23° 292° (WNW) 10:19:07 437.432
HO-68 26 Jun 10:16:01 10:21:39 26° 303° (WNW) 10:27:14 435.675
Oscar 11 26 Jun 10:17:05 10:21:19 55° 286° (WNW) 10:25:30 .
ZACube-1 26 Jun 10:26:40 10:30:37 31° 291° (WNW) 10:34:29 437.345
YUBILEINY 26 Jun 10:27:56 10:36:17 49° 272° (W) 10:44:35 435.215
UNISAT 6 26 Jun 10:30:34 10:35:05 57° 260° (W) 10:39:44 437.425
UWE-3 26 Jun 10:34:19 10:37:19 17° 297° (WNW) 10:40:16 435.000/436.395/437.385
EO-88 26 Jun 10:43:48 10:47:23 52° 100° (E) 10:50:56 145.990 - 145.960
PRISM 26 Jun 11:03:21 11:06:29 22° 265° (W) 11:09:39 437.425
LO-87 26 Jun 11:05:24 11:06:53 12° 91° (E) 11:08:23 145.935 - 145.965
AIST 2D 26 Jun 11:09:09 11:12:32 44° 73° (ENE) 11:15:57 435.315
POLYITAN 1 26 Jun 11:09:47 11:13:17 25° 67° (ENE) 11:16:48 437.675
Tancredo 1 26 Jun 11:12:31 11:14:30 16° 356° (N) 11:16:31 437.200
QB50P2 26 Jun 11:20:14 11:24:06 34° 69° (ENE) 11:27:59 145.880/145.840
TIGRISAT 26 Jun 11:26:32 11:29:39 18° 269° (W) 11:32:50 435.000
DELFI C3 26 Jun 11:31:31 11:34:55 28° 290° (WNW) 11:38:18 145.870
BUGSAT 1 26 Jun 11:31:45 11:32:46 11° 60° (ENE) 11:33:47 437.445
PCSat 26 Jun 11:35:56 11:40:36 30° 109° (ESE) 11:45:17 145.827
ISS 26 Jun 11:41:08 11:43:31 18° 356° (N) 11:45:53 437.550
EO-79 26 Jun 11:44:04 11:48:13 57° 73° (ENE) 11:52:26 145.935-145.965
DUCHIFAT 1 26 Jun 11:56:57 12:01:08 64° 74° (ENE) 12:05:22 145.980
FO-29 26 Jun 12:01:42 12:03:48 12° 278° (W) 12:05:58 435.910
NANOSAT C BR1 26 Jun 12:05:56 12:10:10 89° 267° (W) 12:14:27 145.865
Oscar 19 26 Jun 12:14:23 12:17:28 16° 60° (ENE) 12:20:32 437.125/150
EO-88 26 Jun 12:19:21 12:20:36 11° 296° (WNW) 12:21:49 145.990 - 145.960
LO-87 26 Jun 12:37:04 12:40:33 44° 287° (WNW) 12:44:02 145.935 - 145.965
VELOX 1 26 Jun 12:41:51 12:45:20 22° 94° (E) 12:48:48 145.980
ESTCUBE 1 26 Jun 12:43:40 12:48:10 84° 283° (WNW) 12:52:38 437.505/2401.250
AIST 2D 26 Jun 12:44:44 12:45:59 11° 269° (W) 12:47:14 435.315
POLYITAN 1 26 Jun 12:45:10 12:48:56 30° 264° (W) 12:52:45 437.675
Tancredo 1 26 Jun 12:48:22 12:50:52 22° 17° (NNE) 12:53:21 437.200
SPROUT 26 Jun 12:55:35 12:59:32 34° 97° (E) 13:03:27 437.525
QB50P2 26 Jun 12:56:40 12:59:57 21° 266° (W) 13:03:16 145.880/145.840
DX 1 26 Jun 13:00:23 13:01:33 11° 90° (E) 13:02:44 434.975-435.025
BUGSAT 1 26 Jun 13:03:20 13:07:28 77° 258° (WSW) 13:11:41 437.445
Gurwin Techsat 1B 26 Jun 13:13:10 13:17:54 34° 67° (ENE) 13:22:39 435.225
UKube-1 26 Jun 13:15:50 13:16:44 11° 89° (E) 13:17:38 .
ISS 26 Jun 13:18:02 13:20:49 24° 16° (NNE) 13:23:34 437.550
PCSat 26 Jun 13:18:42 13:23:49 42° 308° (NW) 13:28:59 145.827
EO-79 26 Jun 13:22:21 13:24:21 13° 270° (W) 13:26:20 145.935-145.965
